Simultaneous Nadir Overpasses (SNOs) Predictions

Prediction of SNOs between GOES-16 and NOAA-19 Satellite Orbit:

Table of predicted SNOs for the next 14.0 days since TLE Epoch: 8/9/2019
Index Date Time (GOES-16) GOES-16 Lat,Lon NOAA-19 Lat,Lon Distance(km) Time Diff (sec)
1 08/10/2019 10:22:04 -0.02, -75.18 0.80, -78.83 416.90 80
2 08/11/2019 10:10:25 -0.03, -75.17 0.15, -75.99 92.74 80
3 08/12/2019 09:56:07 -0.03, -75.17 -0.50, -73.14 231.57 80
4 08/14/2019 22:19:55 0.03, -75.17 -0.64, -78.15 339.52 80
5 08/15/2019 22:08:16 0.04, -75.18 -0.00, -75.30 14.65 80
6 08/16/2019 21:53:59 0.04, -75.18 0.70, -72.47 310.47 80
7 08/19/2019 10:17:44 -0.04, -75.22 0.46, -77.46 255.29 80
8 08/20/2019 10:03:25 -0.04, -75.23 -0.20, -74.61 70.48 80
9 08/21/2019 09:51:47 -0.04, -75.24 -0.86, -71.77 396.30 80
10 08/22/2019 22:27:14 0.03, -75.25 -0.97, -79.62 498.31 80




NCC Satellite Simultaneous Nadir Overpasses (SNOs) Prediction Service
